When you browse on this site, cookies collect data to enhance your experience and personalize the content and advertising you see.
Visit our Privacy Policy to learn more. By continuing to use the site, you agree to this use of cookies and data.
  • In Hungary
  • List of Countries
  • For 7 days
  • Water Temperature
  • Satellite Maps
  • Weather Map
  • News
  • Weather Widgets
  • user-avatar
    Login

    Hourly Weather Cienin

    Today, 26 May, Sunday

    Time Temperature Precipitation Wind Pressure Humidity
    00:00 +10°C° 0 mm 2 mps 749 mmHg 92%
    01:00 +9°C° 0 mm 2 mps 750 mmHg 94%
    02:00 +9°C° 0 mm 2 mps 750 mmHg 94%
    03:00 +8°C° 0 mm 2 mps 750 mmHg 94%
    04:00 +9°C° 0 mm 1 mps 750 mmHg 94%
    05:00 +9°C° 0 mm 2 mps 750 mmHg 90%
    06:00 +12°C° 0 mm 2 mps 750 mmHg 86%
    07:00 +13°C° 0 mm 2 mps 750 mmHg 82%
    08:00 +15°C° 0 mm 2 mps 749 mmHg 76%
    09:00 +16°C° 0 mm 3 mps 749 mmHg 70%
    10:00 +18°C° 0 mm 3 mps 749 mmHg 65%
    11:00 +19°C° 0 mm 3 mps 749 mmHg 62%
    12:00 +20°C° 0 mm 4 mps 748 mmHg 59%
    13:00 +21°C° 0 mm 4 mps 748 mmHg 56%
    14:00 +22°C° 0 mm 4 mps 748 mmHg 56%
    15:00 +22°C° 0 mm 4 mps 747 mmHg 56%
    16:00 +22°C° 0 mm 3 mps 747 mmHg 56%
    17:00 +21°C° 0 mm 3 mps 747 mmHg 61%
    18:00 +20°C° 0 mm 2 mps 747 mmHg 66%
    19:00 +20°C° 0 mm 1 mps 747 mmHg 72%
    20:00 +18°C° 0 mm 2 mps 747 mmHg 75%
    21:00 +17°C° 0 mm 2 mps 747 mmHg 78%
    22:00 +15°C° 0 mm 2 mps 747 mmHg 81%
    23:00 +15°C° 0 mm 2 mps 747 mmHg 84%

    Tomorrow, 27 May, Monday

    Time Temperature Precipitation Wind Pressure Humidity
    00:00 +14°C° 0 mm 2 mps 747 mmHg 86%
    01:00 +14°C° 0 mm 2 mps 746 mmHg 89%
    02:00 +14°C° 0 mm 2 mps 746 mmHg 90%
    03:00 +13°C° 0 mm 2 mps 746 mmHg 90%
    04:00 +12°C° 0 mm 3 mps 746 mmHg 91%
    05:00 +14°C° 0 mm 3 mps 746 mmHg 86%
    06:00 +17°C° 0 mm 3 mps 746 mmHg 80%
    07:00 +19°C° 0 mm 4 mps 746 mmHg 75%
    08:00 +20°C° 0 mm 4 mps 746 mmHg 69%
    09:00 +22°C° 0 mm 4 mps 745 mmHg 62%
    10:00 +23°C° 0 mm 4 mps 745 mmHg 56%
    11:00 +25°C° 0 mm 4 mps 745 mmHg 53%
    12:00 +25°C° 0 mm 4 mps 745 mmHg 51%
    13:00 +26°C° 0 mm 4 mps 745 mmHg 48%
    14:00 +26°C° 0 mm 4 mps 745 mmHg 51%
    15:00 +26°C° 0 mm 3 mps 745 mmHg 53%
    16:00 +26°C° 0 mm 3 mps 745 mmHg 55%
    17:00 +24°C° 0.2 mm 3 mps 745 mmHg 64%
    18:00 +21°C° 0.2 mm 2 mps 745 mmHg 74%
    19:00 +20°C° 0.2 mm 2 mps 745 mmHg 83%
    20:00 +19°C° 0 mm 2 mps 745 mmHg 85%
    21:00 +18°C° 0 mm 2 mps 745 mmHg 87%
    22:00 +17°C° 0 mm 2 mps 745 mmHg 89%
    23:00 +17°C° 0.2 mm 2 mps 744 mmHg 91%

    Day after tomorrow, 28 May, Tuesday

    Time Temperature Precipitation Wind Pressure Humidity
    00:00 +17°C° 0.2 mm 2 mps 744 mmHg 93%
    01:00 +16°C° 0.2 mm 2 mps 744 mmHg 95%
    02:00 +16°C° 2.4 mm 2 mps 743 mmHg 96%
    03:00 +16°C° 2.4 mm 2 mps 742 mmHg 97%
    04:00 +16°C° 2.4 mm 1 mps 742 mmHg 98%
    05:00 +16°C° 1.3 mm 1 mps 742 mmHg 97%
    06:00 +16°C° 1.3 mm 1 mps 741 mmHg 96%
    07:00 +16°C° 1.3 mm 1 mps 741 mmHg 95%
    08:00 +17°C° 0.4 mm 2 mps 741 mmHg 91%
    09:00 +18°C° 0.4 mm 2 mps 741 mmHg 87%
    10:00 +19°C° 0.4 mm 3 mps 741 mmHg 83%
    11:00 +18°C° 0.7 mm 3 mps 741 mmHg 84%
    12:00 +18°C° 0.7 mm 4 mps 741 mmHg 85%
    13:00 +16°C° 0.7 mm 5 mps 741 mmHg 87%
    14:00 +14°C° 0.5 mm 5 mps 741 mmHg 89%
    15:00 +13°C° 0.5 mm 6 mps 741 mmHg 92%
    16:00 +10°C° 0.5 mm 6 mps 741 mmHg 94%
    17:00 +10°C° 0.1 mm 6 mps 741 mmHg 94%
    18:00 +10°C° 0.1 mm 5 mps 742 mmHg 93%
    19:00 +11°C° 0.1 mm 4 mps 742 mmHg 93%
    20:00 +10°C° 0 mm 4 mps 742 mmHg 93%
    21:00 +10°C° 0 mm 4 mps 743 mmHg 94%
    22:00 +10°C° 0 mm 4 mps 743 mmHg 94%
    23:00 +10°C° 0 mm 3 mps 743 mmHg 95%

    29 May, Wednesday

    Time Temperature Precipitation Wind Pressure Humidity
    00:00 +9°C° 0 mm 3 mps 744 mmHg 96%
    01:00 +9°C° 0 mm 2 mps 744 mmHg 97%
    02:00 +8°C° 0 mm 2 mps 744 mmHg 97%
    03:00 +8°C° 0 mm 2 mps 744 mmHg 96%
    04:00 +8°C° 0 mm 1 mps 744 mmHg 96%
    05:00 +10°C° 0 mm 1 mps 745 mmHg 92%
    06:00 +11°C° 0 mm 1 mps 745 mmHg 87%
    07:00 +13°C° 0 mm 1 mps 745 mmHg 83%
    08:00 +14°C° 0.1 mm 2 mps 746 mmHg 80%
    09:00 +14°C° 0.1 mm 2 mps 746 mmHg 77%
    10:00 +15°C° 0.1 mm 2 mps 746 mmHg 75%
    11:00 +15°C° 0.4 mm 2 mps 746 mmHg 78%
    12:00 +15°C° 0.4 mm 2 mps 746 mmHg 80%
    13:00 +15°C° 0.4 mm 2 mps 747 mmHg 83%
    14:00 +16°C° 0.4 mm 2 mps 747 mmHg 83%
    15:00 +16°C° 0.4 mm 2 mps 747 mmHg 82%
    16:00 +16°C° 0.4 mm 2 mps 747 mmHg 82%
    17:00 +15°C° 0.5 mm 2 mps 748 mmHg 85%
    18:00 +14°C° 0.5 mm 3 mps 748 mmHg 87%
    19:00 +13°C° 0.5 mm 3 mps 748 mmHg 90%
    20:00 +12°C° 0.2 mm 4 mps 749 mmHg 92%
    21:00 +12°C° 0.2 mm 4 mps 750 mmHg 93%
    22:00 +11°C° 0.2 mm 4 mps 750 mmHg 95%
    23:00 +10°C° 0 mm 4 mps 751 mmHg 94%

    30 May, Thursday

    Time Temperature Precipitation Wind Pressure Humidity
    00:00 +8°C° 0 mm 4 mps 751 mmHg 94%
    01:00 +7°C° 0 mm 4 mps 751 mmHg 94%
    02:00 +6°C° 0 mm 4 mps 752 mmHg 94%
    03:00 +5°C° 0 mm 3 mps 752 mmHg 94%
    04:00 +5°C° 0 mm 3 mps 753 mmHg 94%
    05:00 +7°C° 0 mm 3 mps 753 mmHg 89%
    06:00 +8°C° 0 mm 3 mps 754 mmHg 84%
    07:00 +10°C° 0 mm 3 mps 755 mmHg 80%
    08:00 +11°C° 0 mm 3 mps 755 mmHg 73%
    09:00 +13°C° 0 mm 3 mps 755 mmHg 66%
    10:00 +14°C° 0 mm 3 mps 755 mmHg 59%
    11:00 +16°C° 0 mm 2 mps 755 mmHg 57%
    12:00 +17°C° 0 mm 2 mps 755 mmHg 54%
    13:00 +19°C° 0 mm 1 mps 754 mmHg 52%
    14:00 +19°C° 0 mm 1 mps 754 mmHg 53%
    15:00 +18°C° 0 mm 2 mps 754 mmHg 54%
    16:00 +18°C° 0 mm 2 mps 754 mmHg 55%
    17:00 +17°C° 0 mm 2 mps 754 mmHg 62%
    18:00 +17°C° 0 mm 2 mps 754 mmHg 69%
    19:00 +16°C° 0 mm 2 mps 754 mmHg 76%
    20:00 +15°C° 0 mm 2 mps 754 mmHg 77%
    21:00 +13°C° 0 mm 3 mps 754 mmHg 78%
    22:00 +12°C° 0 mm 3 mps 754 mmHg 79%
    23:00 +11°C° 0 mm 3 mps 754 mmHg 81%

    31 May, Friday

    Time Temperature Precipitation Wind Pressure Humidity
    00:00 +11°C° 0 mm 3 mps 754 mmHg 83%
    01:00 +11°C° 0 mm 3 mps 754 mmHg 85%
    02:00 +11°C° 0 mm 3 mps 753 mmHg 84%
    03:00 +11°C° 0 mm 3 mps 753 mmHg 83%
    04:00 +11°C° 0 mm 3 mps 753 mmHg 82%
    05:00 +13°C° 0 mm 4 mps 753 mmHg 80%
    06:00 +14°C° 0 mm 5 mps 753 mmHg 79%
    07:00 +16°C° 0 mm 5 mps 753 mmHg 77%
    08:00 +16°C° 0.4 mm 6 mps 753 mmHg 79%
    09:00 +16°C° 0.4 mm 6 mps 753 mmHg 80%
    10:00 +16°C° 0.4 mm 6 mps 753 mmHg 82%
    11:00 +16°C° 0.4 mm 6 mps 754 mmHg 82%
    12:00 +16°C° 0.4 mm 6 mps 754 mmHg 83%
    13:00 +16°C° 0.4 mm 6 mps 754 mmHg 84%
    14:00 +16°C° 0.1 mm 6 mps 755 mmHg 78%
    15:00 +16°C° 0.1 mm 5 mps 755 mmHg 72%
    16:00 +17°C° 0.1 mm 5 mps 756 mmHg 66%
    17:00 +15°C° 0 mm 4 mps 756 mmHg 67%
    18:00 +14°C° 0 mm 3 mps 757 mmHg 69%
    19:00 +14°C° 0 mm 2 mps 757 mmHg 70%
    20:00 +13°C° 0 mm 2 mps 758 mmHg 69%
    21:00 +11°C° 0 mm 1 mps 758 mmHg 69%
    22:00 +10°C° 0 mm 1 mps 759 mmHg 68%
    23:00 +10°C° 0 mm 1 mps 759 mmHg 69%
    Show more